Regional Weather Roundup
Issued by NWS

Home | Current Version | Previous Version | Graphics & Text | Print | Product List | Glossary On
Versions: 1 2 3 4 5 6 7 8 9 10 11 12 13 14 15 16 17 18 19 20 21 22 23 24 25 26 27 28 29 30 31 32 33 34 35 36 37 38 39 40 41 42 43 44 45 46 47 48 49 50
000
ASUS43 KMPX 241310
RWRMN
WEATHER ROUNDUP FOR MINNESOTA
NATIONAL WEATHER SERVICE TWIN CITIES/CHANHASSEN MN
800 AM CDT SAT SEP 24 2016


NOTE: "FAIR" INDICATES FEW OR NO CLOUDS BELOW 12,000 FEET WITH NO
SIGNIFICANT WEATHER AND/OR OBSTRUCTIONS TO VISIBILITY. N/A MEANS
CURRENT SKY AND/OR WEATHER CONDITIONS ARE NOT AVAILABLE.

MNZ060>063-068>070-241400-
   Twin Cities Metro

CITY           SKY/WX    TMP DP  RH WIND       PRES   REMARKS
TWIN CITIES    CLOUDY    64  60  87 SE13      30.10S
ST PAUL        CLOUDY    63  59  87 SE12      30.11S
CRYSTAL        CLOUDY    63  59  87 SE12      30.08F
BLAINE         CLOUDY    64  63  94 SE10      30.10S
LAKEVILLE      CLOUDY    63  63 100 SE7       30.10S FOG
EDEN PRAIRIE   CLOUDY    65  62  90 SE10      30.08S FOG
LAKEVILLE      CLOUDY    63  63 100 SE7       30.10S FOG
SOUTH ST PAUL  CLOUDY    64  60  90 SE8       30.11S
LAKE ELMO      CLOUDY    63  59  88 SE9       30.13S
$$
MNZ001>005-007-008-013>017-022>024-027-028-241400-
   Northwest Minnesota

CITY           SKY/WX    TMP DP  RH WIND       PRES   REMARKS
BEMIDJI        CLOUDY    58  58  99 SE12G18   30.03F FOG
HALLOCK        CLOUDY    59  57  94 SE15      29.91F FOG
ROSEAU         CLOUDY    55  50  82 E8        29.99F HAZE
WARROAD        CLOUDY    55  52  88 E13       30.02S FOG
THIEF RVR FALL CLOUDY    61  59  93 SE14      29.95F
CROOKSTON      CLOUDY    64  63  94 SE12      29.92F
FOSSTON        PTCLDY    61  59  94 SE13G18   29.97F
DETROIT LAKES  CLOUDY    63  61  94 SE16G23   29.99F FOG
MOORHEAD       CLOUDY    66  64  94 SE16G22   29.91F
PARK RAPIDS    CLOUDY    62  60  93 SE13      30.03F FOG
MAHNOMEN       CLOUDY    63  61  92 SE16G22   29.96F
$$
MNZ006-009>011-018-025>026-241400-
   North Central Minnesota

CITY           SKY/WX    TMP DP  RH WIND       PRES   REMARKS
BAUDETTE       CLOUDY    55  54  96 SE13      30.04F FOG
FLAG ISLAND    CLOUDY    57  55  94 SE15      30.02S
INTL FALLS     CLOUDY    54  52  93 E9        30.09S
WASKISH        CLOUDY    59  57  94 SE7       30.05F
BIG FORK       CLOUDY    59  55  88 SE7       30.10S
GRAND RAPIDS   CLOUDY    57  56  96 SE9G17    30.12S FOG
CRANE LAKE     CLOUDY    54  52  94 SE5       30.15S
ORR            CLOUDY    57  50  77 SE9       30.10S
COOK           CLOUDY    57  52  82 SE8G16    30.14S
WALKER         CLOUDY    59  58  98 SE6       30.05F FOG
$$
MNZ012-019>021-037-241400-
   Northeast Minnesota

CITY           SKY/WX    TMP DP  RH WIND       PRES   REMARKS
DULUTH         CLOUDY    57  52  83 SE13      30.17R
ELY            CLOUDY    55  52  88 SE8       30.17S
HIBBING        CLOUDY    56  52  86 SE9       30.14S
EVELETH        CLOUDY    58  50  76 SE7       30.16S
DULUTH HARBOR  CLOUDY    59  55  88 NE9       30.18R
TWO HARBORS    CLOUDY    61  55  82 E6        30.18R
SILVER BAY     PTCLDY    55  54  94 E3        30.19S
GRAND MARAIS     N/A     59  52  77 E8        30.23S
G MARAIS ARPRT CLOUDY    52  46  82 E5        30.25S
$$
MNZ029>031-032-039>041-046>048-054>057-064-241400-
   West Central Minnesota

CITY           SKY/WX    TMP DP  RH WIND       PRES   REMARKS
FERGUS FALLS   CLOUDY    66  66 100 SE20      29.97S
MORRIS         CLOUDY    66  66 100 SE14      29.97R FOG
ALEXANDRIA     FOG       64  64 100 SE13      30.03F VSB 3/4
ELBOW LAKE     CLOUDY    66  65  96 E16G22    29.98R
GLENWOOD       CLOUDY    64  64 100 SE10G16   30.03S FOG
BENSON         CLOUDY    68  64  88 S12G21    29.98S FOG
ORTONVILLE     CLOUDY    68  64  88 SE12G22   29.93S FOG
MADISON          N/A     70  70 100 SE14G24   29.94S FOG
WILLMAR        CLOUDY    66  66 100 SE13      30.03S FOG
$$
MNZ033>034-036-042>043-049>051-058-059-241400-
   Central Minnesota

CITY           SKY/WX    TMP DP  RH WIND       PRES   REMARKS
ST CLOUD       CLOUDY    63  63 100 SE10      30.07S FOG
SAUK CENTRE    CLOUDY    63  63  99 E12       30.04S FOG
PAYNESVILLE    CLOUDY    64  65 100 SE13      30.05S FOG
AITKIN         CLOUDY    61  55  82 SE8       30.09S HAZE
PINE RIVER     CLOUDY    61  61 100 SE9       30.10S FOG
BRAINERD       FOG       61  60  97 SE8       30.08S VSB 1
STAPLES        CLOUDY    61  61 100 SE7       30.05S FOG
LONG PRAIRIE   FOG       61  61 100 E9        30.05S VSB 1
LITTLE FALLS   CLOUDY    61  59  94 SE7       30.07R FOG
BUFFALO        CLOUDY    63  61  93 E8        30.09R FOG
MAPLE LAKE     FOG       64  64  98 SE6       30.08S VSB 1
HUTCHINSON     CLOUDY    66  65  99 SE9       30.07S FOG
$$
MNZ037-044-045-052-053-241400-
   East Central Minnesota

CITY           SKY/WX    TMP DP  RH WIND       PRES   REMARKS
PRINCETON      CLOUDY    63  61  94 E8        30.10S FOG
MORA           CLOUDY    57  55  94 E8        30.13F FOG
CAMBRIDGE      CLOUDY    63  57  82 E8        30.09F HAZE
MOOSE LAKE     CLOUDY    57  54  88 SE3       30.13S FOG
HINCKLEY       CLOUDY    59  59 100 E7        30.14R FOG
CLOQUET        CLOUDY    57  50  77 E9        30.16S
MCGREGOR       CLOUDY    55  55 100 SE9       30.13F
$$
MNZ071>073-080-081-089-090-097-098-241400-
   Southwest Minnesota

CITY           SKY/WX    TMP DP  RH WIND       PRES   REMARKS
MONTEVIDEO     CLOUDY    68  66  94 S14G23    29.98F FOG
GRANITE FALLS  CLOUDY    70  67  91 E15G21    29.99S FOG
CANBY          CLOUDY    68  66  94 E13       29.95S FOG
MARSHALL       CLOUDY    68  66  93 SE15      29.97S
REDWOOD FALLS  CLOUDY    68  64  87 SE15      30.00F FOG
OLIVIA         CLOUDY    64  63  94 SE13G18   30.01S FOG
PIPESTONE      LGT RAIN  70  64  83 S12G20    29.97R
WINDOM         MOCLDY    68  64  88 SE12      30.02S FOG
WORTHINGTON    CLOUDY    67  66  97 SE12      30.01S FOG
JACKSON        CLOUDY    68  63  83 SE13      30.03S FOG
TRACY          CLOUDY    69  67  94 SE12      30.00R FOG
$$
MNZ065>067-074>077-082>085-091>093-241400-
   South Central Minnesota

CITY           SKY/WX    TMP DP  RH WIND       PRES   REMARKS
MANKATO        CLOUDY    65  32  29 SE16      30.06F HAZE
NEW ULM        CLOUDY    66  64  94 SE12      30.04S FOG
ST JAMES       CLOUDY    66  64  94 SE8       30.05S FOG
FAIRMONT       CLOUDY    67  65  93 SE12      30.06R FOG
GLENCOE        CLOUDY    66  66  98 SE10      30.06S
FARIBAULT      CLOUDY    64  63  94 SE8       30.11R
OWATONNA       CLOUDY    64  61  88 SE10G18   30.10S FOG
WASECA         CLOUDY    63  61  94 SE13G18   30.10S FOG
ALBERT LEA     FOG       64  63  94 SE9       30.10S VSB 3/4
$$
MNZ078>079-086>088-094>096-241400-
   Southeast Minnesota

CITY           SKY/WX    TMP DP  RH WIND       PRES   REMARKS
ROCHESTER      FOG       62  62 100 SE10      30.14S VSB 3/4
RED WING       CLOUDY    64  61  88 SE12      30.12S
DODGE CENTER   FOG       63  61  94 SE8       30.13S VSB 1
WINONA         CLOUDY    61  59  94 SE7       30.16S
AUSTIN         CLOUDY    63  61  94 SE9       30.12S FOG
PRESTON        FOG       61  60  95 SE8       30.16R VSB 1/2
$$
ABBREVIATIONS USED IN REMARKS
   TC - TEMPERATURES IN CELSIUS
  WCI - WIND CHILL INDEX
   HX - HEAT INDEX
  VSB - VISIBILITY
$$




USA.gov is the U.S. government's official web portal to all federal, state and local government web resources and services.